Time,TemperatureF,DewpointF,PressureIn,WindDirection,WindDirectionDegrees,WindSpeedMPH,WindSpeedGustMPH,Humidity,HourlyPrecipIn,Conditions,Clouds,dailyrainin,SoftwareType,DateUTC
2013-03-13 00:00:00,36.0,31.0,30.06,SE,126,0.0,0.0,82,0.00,,,0.47,Wunderground v.1.15,2013-03-13 04:00:00,
2013-03-13 00:05:00,35.8,31.1,30.06,SE,126,0.0,0.0,83,0.00,,,0.00,Wunderground v.1.15,2013-03-13 04:05:00,
2013-03-13 00:09:00,35.7,31.0,30.06,SE,126,0.0,0.0,83,0.00,,,0.00,Wunderground v.1.15,2013-03-13 04:09:00,
2013-03-13 00:15:00,35.4,30.8,30.06,SE,126,0.0,0.0,83,0.00,,,0.00,Wunderground v.1.15,2013-03-13 04:15:00,
2013-03-13 00:19:00,35.2,30.6,30.06,SE,126,0.0,0.0,83,0.00,,,0.00,Wunderground v.1.15,2013-03-13 04:19:00,
2013-03-13 00:24:00,35.0,30.7,30.06,SE,126,0.0,0.0,84,0.00,,,0.00,Wunderground v.1.15,2013-03-13 04:24:00,
2013-03-13 00:29:00,34.8,30.5,30.06,SE,126,0.0,0.0,84,0.00,,,0.00,Wunderground v.1.15,2013-03-13 04:29:00,
2013-03-13 00:39:00,34.4,30.4,30.06,SE,126,0.0,0.0,85,0.00,,,0.00,Wunderground v.1.15,2013-03-13 04:39:00,
2013-03-13 00:44:00,34.3,30.3,30.07,SE,126,0.0,1.0,85,0.00,,,0.00,Wunderground v.1.15,2013-03-13 04:44:00,
2013-03-13 00:49:00,34.2,30.2,30.07,SE,126,0.0,1.0,85,0.00,,,0.00,Wunderground v.1.15,2013-03-13 04:49:00,
2013-03-13 00:55:00,34.2,30.4,30.07,SE,126,0.0,1.0,86,0.00,,,0.00,Wunderground v.1.15,2013-03-13 04:55:00,
2013-03-13 01:05:00,34.4,30.4,30.07,SE,126,0.0,2.0,85,0.00,,,0.00,Wunderground v.1.15,2013-03-13 05:05:00,
2013-03-13 01:14:00,34.7,30.1,30.07,SE,126,0.0,0.0,83,0.00,,,0.00,Wunderground v.1.15,2013-03-13 05:14:00,
2013-03-13 01:19:00,34.8,30.2,30.07,SE,126,0.0,0.0,83,0.00,,,0.00,Wunderground v.1.15,2013-03-13 05:19:00,
2013-03-13 01:24:00,34.8,30.2,30.07,SE,126,0.0,0.0,83,0.00,,,0.00,Wunderground v.1.15,2013-03-13 05:24:00,
2013-03-13 01:29:00,34.8,30.5,30.07,SE,126,0.0,0.0,84,0.00,,,0.00,Wunderground v.1.15,2013-03-13 05:29:00,
2013-03-13 01:34:00,34.7,30.4,30.07,SE,126,0.0,0.0,84,0.00,,,0.00,Wunderground v.1.15,2013-03-13 05:34:00,
2013-03-13 01:39:00,34.5,30.2,30.07,SE,126,0.0,0.0,84,0.00,,,0.00,Wunderground v.1.15,2013-03-13 05:39:00,
2013-03-13 01:44:00,34.3,30.3,30.07,SE,126,0.0,0.0,85,0.00,,,0.00,Wunderground v.1.15,2013-03-13 05:44:00,
2013-03-13 01:54:00,33.9,29.9,30.07,SE,126,0.0,0.0,85,0.00,,,0.00,Wunderground v.1.15,2013-03-13 05:54:00,
2013-03-13 01:59:00,33.7,30.0,30.07,SE,126,0.0,0.0,86,0.00,,,0.00,Wunderground v.1.15,2013-03-13 05:59:00,
2013-03-13 02:05:00,33.5,30.0,30.07,SE,126,0.0,0.0,87,0.00,,,0.00,Wunderground v.1.15,2013-03-13 06:05:00,
2013-03-13 02:09:00,33.3,29.8,30.07,SE,126,0.0,0.0,87,0.00,,,0.00,Wunderground v.1.15,2013-03-13 06:09:00,
2013-03-13 02:14:00,33.1,29.7,30.07,SE,126,0.0,0.0,87,0.00,,,0.00,Wunderground v.1.15,2013-03-13 06:14:00,
2013-03-13 02:19:00,32.9,29.7,30.07,SE,126,0.0,0.0,88,0.00,,,0.00,Wunderground v.1.15,2013-03-13 06:19:00,
2013-03-13 02:24:00,32.8,29.9,30.07,SE,126,0.0,0.0,89,0.00,,,0.00,Wunderground v.1.15,2013-03-13 06:24:00,
2013-03-13 02:29:00,32.6,29.7,30.08,SE,126,0.0,0.0,89,0.00,,,0.00,Wunderground v.1.15,2013-03-13 06:29:00,
2013-03-13 02:34:00,32.5,29.6,30.08,SE,126,0.0,0.0,89,0.00,,,0.00,Wunderground v.1.15,2013-03-13 06:34:00,
2013-03-13 02:39:00,32.5,29.9,30.08,SE,126,0.0,0.0,90,0.00,,,0.00,Wunderground v.1.15,2013-03-13 06:39:00,
2013-03-13 02:44:00,32.6,30.0,30.08,SE,126,0.0,0.0,90,0.00,,,0.00,Wunderground v.1.15,2013-03-13 06:44:00,
2013-03-13 02:49:00,32.7,30.1,30.08,SE,126,0.0,0.0,90,0.00,,,0.00,Wunderground v.1.15,2013-03-13 06:49:00,
2013-03-13 02:54:00,32.8,30.2,30.08,SE,126,0.0,0.0,90,0.00,,,0.00,Wunderground v.1.15,2013-03-13 06:54:00,
2013-03-13 02:59:00,32.8,30.2,30.08,SE,126,0.0,0.0,90,0.00,,,0.00,Wunderground v.1.15,2013-03-13 06:59:00,
2013-03-13 03:04:00,32.8,30.2,30.08,SE,126,0.0,0.0,90,0.00,,,0.00,Wunderground v.1.15,2013-03-13 07:04:00,
2013-03-13 03:09:00,32.8,30.2,30.07,SE,126,0.0,0.0,90,0.00,,,0.00,Wunderground v.1.15,2013-03-13 07:09:00,
2013-03-13 03:14:00,32.7,30.1,30.08,SE,126,0.0,0.0,90,0.00,,,0.00,Wunderground v.1.15,2013-03-13 07:14:00,
2013-03-13 03:25:00,32.4,29.8,30.08,SE,126,0.0,0.0,90,0.00,,,0.00,Wunderground v.1.15,2013-03-13 07:25:00,
2013-03-13 03:30:00,32.3,29.7,30.08,SE,126,0.0,0.0,90,0.00,,,0.00,Wunderground v.1.15,2013-03-13 07:30:00,
2013-03-13 03:34:00,32.1,29.8,30.08,SE,126,0.0,0.0,91,0.00,,,0.00,Wunderground v.1.15,2013-03-13 07:34:00,
2013-03-13 03:39:00,32.0,29.7,30.07,SE,126,0.0,0.0,91,0.00,,,0.00,Wunderground v.1.15,2013-03-13 07:39:00,
2013-03-13 03:44:00,31.8,29.5,30.07,SE,126,0.0,0.0,91,0.00,,,0.00,Wunderground v.1.15,2013-03-13 07:44:00,
2013-03-13 03:49:00,31.7,29.4,30.07,SE,126,0.0,0.0,91,0.00,,,0.00,Wunderground v.1.15,2013-03-13 07:49:00,
2013-03-13 03:55:00,31.6,29.3,30.07,SE,126,0.0,0.0,91,0.00,,,0.00,Wunderground v.1.15,2013-03-13 07:55:00,
2013-03-13 04:05:00,31.4,29.3,30.08,SE,126,0.0,0.0,92,0.00,,,0.00,Wunderground v.1.15,2013-03-13 08:05:00,
2013-03-13 04:15:00,31.2,29.1,30.08,SE,126,0.0,0.0,92,0.00,,,0.00,Wunderground v.1.15,2013-03-13 08:15:00,
2013-03-13 04:24:00,31.2,29.1,30.08,SE,126,0.0,0.0,92,0.00,,,0.00,Wunderground v.1.15,2013-03-13 08:24:00,
2013-03-13 04:29:00,31.1,29.0,30.08,SE,126,0.0,0.0,92,0.00,,,0.00,Wunderground v.1.15,2013-03-13 08:29:00,
2013-03-13 04:34:00,31.0,28.9,30.08,SE,126,0.0,0.0,92,0.00,,,0.00,Wunderground v.1.15,2013-03-13 08:34:00,
2013-03-13 04:39:00,30.9,28.9,30.08,SE,126,0.0,0.0,92,0.00,,,0.00,Wunderground v.1.15,2013-03-13 08:39:00,
2013-03-13 04:44:00,30.8,28.8,30.08,SE,126,0.0,0.0,92,0.00,,,0.00,Wunderground v.1.15,2013-03-13 08:44:00,
2013-03-13 04:54:00,30.5,28.5,30.08,SE,126,0.0,0.0,92,0.00,,,0.00,Wunderground v.1.15,2013-03-13 08:54:00,
2013-03-13 04:59:00,30.4,28.4,30.08,SE,126,0.0,0.0,92,0.00,,,0.00,Wunderground v.1.15,2013-03-13 08:59:00,
2013-03-13 05:05:00,30.3,28.3,30.08,SE,126,0.0,0.0,92,0.00,,,0.00,Wunderground v.1.15,2013-03-13 09:05:00,
2013-03-13 05:14:00,30.1,28.1,30.08,SE,126,0.0,0.0,92,0.00,,,0.00,Wunderground v.1.15,2013-03-13 09:14:00,
2013-03-13 05:19:00,29.9,27.9,30.08,SE,126,0.0,0.0,92,0.00,,,0.00,Wunderground v.1.15,2013-03-13 09:19:00,
2013-03-13 05:24:00,29.8,27.8,30.08,SE,126,0.0,0.0,92,0.00,,,0.00,Wunderground v.1.15,2013-03-13 09:24:00,
2013-03-13 05:29:00,29.7,27.9,30.08,SE,126,0.0,0.0,93,0.00,,,0.00,Wunderground v.1.15,2013-03-13 09:29:00,
2013-03-13 05:34:00,29.5,27.7,30.08,SE,126,0.0,0.0,93,0.00,,,0.00,Wunderground v.1.15,2013-03-13 09:34:00,
2013-03-13 05:39:00,29.4,27.6,30.08,SE,126,0.0,0.0,93,0.00,,,0.00,Wunderground v.1.15,2013-03-13 09:39:00,
2013-03-13 05:44:00,29.3,27.5,30.08,SE,126,0.0,0.0,93,0.00,,,0.00,Wunderground v.1.15,2013-03-13 09:44:00,
2013-03-13 05:54:00,29.2,27.4,30.08,SE,126,0.0,0.0,93,0.00,,,0.00,Wunderground v.1.15,2013-03-13 09:54:00,
2013-03-13 05:59:00,29.2,27.4,30.08,SE,126,0.0,0.0,93,0.00,,,0.00,Wunderground v.1.15,2013-03-13 09:59:00,
2013-03-13 06:05:00,29.2,27.4,30.09,SE,126,0.0,0.0,93,0.00,,,0.00,Wunderground v.1.15,2013-03-13 10:05:00,
2013-03-13 06:14:00,29.1,27.3,30.09,SE,126,0.0,0.0,93,0.00,,,0.00,Wunderground v.1.15,2013-03-13 10:14:00,
2013-03-13 06:24:00,29.0,27.2,30.09,SE,126,0.0,0.0,93,0.00,,,0.00,Wunderground v.1.15,2013-03-13 10:24:00,
2013-03-13 06:29:00,29.0,27.2,30.09,SE,126,0.0,0.0,93,0.00,,,0.00,Wunderground v.1.15,2013-03-13 10:29:00,
2013-03-13 06:34:00,29.0,27.2,30.09,SE,126,0.0,0.0,93,0.00,,,0.00,Wunderground v.1.15,2013-03-13 10:34:00,
2013-03-13 06:39:00,28.9,27.1,30.10,SE,126,0.0,0.0,93,0.00,,,0.00,Wunderground v.1.15,2013-03-13 10:39:00,
2013-03-13 06:44:00,28.9,26.9,30.10,SE,126,0.0,0.0,92,0.00,,,0.00,Wunderground v.1.15,2013-03-13 10:44:00,
2013-03-13 06:49:00,28.9,26.9,30.10,SE,126,0.0,0.0,92,0.00,,,0.00,Wunderground v.1.15,2013-03-13 10:49:00,
2013-03-13 06:54:00,28.9,26.9,30.10,SE,126,0.0,0.0,92,0.00,,,0.00,Wunderground v.1.15,2013-03-13 10:54:00,
2013-03-13 06:59:00,28.9,26.9,30.10,SE,126,0.0,0.0,92,0.00,,,0.00,Wunderground v.1.15,2013-03-13 10:59:00,
2013-03-13 07:05:00,28.9,26.6,30.10,SE,126,0.0,0.0,91,0.00,,,0.00,Wunderground v.1.15,2013-03-13 11:05:00,
2013-03-13 07:09:00,28.9,26.6,30.10,SE,126,0.0,0.0,91,0.00,,,0.00,Wunderground v.1.15,2013-03-13 11:09:00,
2013-03-13 07:15:00,28.9,26.9,30.10,SE,126,0.0,0.0,92,0.00,,,0.00,Wunderground v.1.15,2013-03-13 11:15:00,
2013-03-13 07:19:00,28.9,26.9,30.10,SE,126,0.0,0.0,92,0.00,,,0.00,Wunderground v.1.15,2013-03-13 11:19:00,
2013-03-13 07:24:00,28.8,26.5,30.10,SE,126,0.0,0.0,91,0.00,,,0.00,Wunderground v.1.15,2013-03-13 11:24:00,
2013-03-13 07:29:00,28.8,26.8,30.10,SE,126,0.0,0.0,92,0.00,,,0.00,Wunderground v.1.15,2013-03-13 11:29:00,
2013-03-13 07:39:00,28.7,26.4,30.10,SE,126,0.0,0.0,91,0.00,,,0.00,Wunderground v.1.15,2013-03-13 11:39:00,
2013-03-13 07:44:00,28.6,26.6,30.10,SE,126,0.0,0.0,92,0.00,,,0.00,Wunderground v.1.15,2013-03-13 11:44:00,
2013-03-13 07:49:00,28.6,26.6,30.11,SE,126,0.0,0.0,92,0.00,,,0.00,Wunderground v.1.15,2013-03-13 11:49:00,
2013-03-13 07:54:00,28.6,26.6,30.11,SE,126,0.0,0.0,92,0.00,,,0.00,Wunderground v.1.15,2013-03-13 11:54:00,
2013-03-13 07:59:00,28.5,26.5,30.11,SE,126,0.0,0.0,92,0.00,,,0.00,Wunderground v.1.15,2013-03-13 11:59:00,
2013-03-13 08:05:00,28.5,26.5,30.11,SE,126,0.0,0.0,92,0.00,,,0.00,Wunderground v.1.15,2013-03-13 12:05:00,
2013-03-13 08:09:00,28.5,26.5,30.11,SE,126,0.0,0.0,92,0.00,,,0.00,Wunderground v.1.15,2013-03-13 12:09:00,
2013-03-13 08:14:00,28.6,26.6,30.12,SE,126,0.0,0.0,92,0.00,,,0.00,Wunderground v.1.15,2013-03-13 12:14:00,
2013-03-13 08:24:00,28.8,27.0,30.12,SE,126,0.0,0.0,93,0.00,,,0.00,Wunderground v.1.15,2013-03-13 12:24:00,
2013-03-13 08:29:00,29.0,27.2,30.12,SE,126,0.0,0.0,93,0.00,,,0.00,Wunderground v.1.15,2013-03-13 12:29:00,
2013-03-13 08:34:00,29.2,27.4,30.12,SE,126,0.0,0.0,93,0.00,,,0.00,Wunderground v.1.15,2013-03-13 12:34:00,
2013-03-13 08:40:00,29.5,27.7,30.12,SE,126,0.0,0.0,93,0.00,,,0.00,Wunderground v.1.15,2013-03-13 12:40:00,
2013-03-13 08:44:00,29.8,28.0,30.12,SE,126,0.0,0.0,93,0.00,,,0.00,Wunderground v.1.15,2013-03-13 12:44:00,
2013-03-13 08:49:00,30.3,28.8,30.12,SE,126,0.0,0.0,94,0.00,,,0.00,Wunderground v.1.15,2013-03-13 12:49:00,
2013-03-13 08:59:00,31.2,29.4,30.13,North,5,0.0,0.0,93,0.00,,,0.00,Wunderground v.1.15,2013-03-13 12:59:00,
2013-03-13 09:04:00,31.7,29.6,30.13,North,5,0.0,0.0,92,0.00,,,0.00,Wunderground v.1.15,2013-03-13 13:04:00,
2013-03-13 09:14:00,32.5,30.4,30.13,North,5,0.0,0.0,92,0.00,,,0.00,Wunderground v.1.15,2013-03-13 13:14:00,
2013-03-13 09:19:00,33.0,30.7,30.13,North,5,0.0,0.0,91,0.00,,,0.00,Wunderground v.1.15,2013-03-13 13:19:00,
2013-03-13 09:24:00,33.7,31.4,30.13,North,5,0.0,0.0,91,0.00,,,0.00,Wunderground v.1.15,2013-03-13 13:24:00,
2013-03-13 09:29:00,34.4,31.5,30.12,North,5,0.0,0.0,89,0.00,,,0.00,Wunderground v.1.15,2013-03-13 13:29:00,
2013-03-13 09:34:00,35.2,30.9,30.13,North,5,0.0,0.0,84,0.00,,,0.00,Wunderground v.1.15,2013-03-13 13:34:00,
2013-03-13 09:39:00,36.4,30.2,30.12,NNE,28,0.0,0.0,78,0.00,,,0.00,Wunderground v.1.15,2013-03-13 13:39:00,
2013-03-13 09:44:00,37.6,29.4,30.12,East,88,0.0,0.0,72,0.00,,,0.00,Wunderground v.1.15,2013-03-13 13:44:00,
2013-03-13 09:49:00,38.7,29.4,30.12,ESE,107,0.0,1.0,69,0.00,,,0.00,Wunderground v.1.15,2013-03-13 13:49:00,
2013-03-13 09:54:00,39.7,27.7,30.12,SE,131,1.0,1.0,62,0.00,,,0.00,Wunderground v.1.15,2013-03-13 13:54:00,
2013-03-13 09:59:00,40.6,27.4,30.12,South,177,2.0,2.0,59,0.00,,,0.00,Wunderground v.1.15,2013-03-13 13:59:00,
2013-03-13 10:04:00,41.4,28.1,30.13,ESE,116,1.0,2.0,59,0.00,,,0.00,Wunderground v.1.15,2013-03-13 14:04:00,
2013-03-13 10:09:00,41.9,28.2,30.12,NW,311,1.0,1.0,58,0.00,,,0.00,Wunderground v.1.15,2013-03-13 14:09:00,
2013-03-13 10:14:00,42.2,28.0,30.12,SSE,168,1.0,1.0,57,0.00,,,0.00,Wunderground v.1.15,2013-03-13 14:14:00,
2013-03-13 10:20:00,42.5,27.5,30.12,SSE,160,1.0,1.0,55,0.00,,,0.00,Wunderground v.1.15,2013-03-13 14:20:00,
2013-03-13 10:25:00,42.9,29.1,30.12,NE,50,0.0,1.0,58,0.00,,,0.00,Wunderground v.1.15,2013-03-13 14:25:00,
2013-03-13 10:29:00,43.2,27.2,30.12,NW,317,1.0,2.0,53,0.00,,,0.00,Wunderground v.1.15,2013-03-13 14:29:00,
2013-03-13 10:34:00,43.4,26.9,30.12,East,88,2.0,2.0,52,0.00,,,0.00,Wunderground v.1.15,2013-03-13 14:34:00,
2013-03-13 10:39:00,43.7,27.2,30.12,ESE,115,2.0,2.0,52,0.00,,,0.00,Wunderground v.1.15,2013-03-13 14:39:00,
2013-03-13 10:44:00,44.0,26.5,30.12,ESE,117,1.0,2.0,50,0.00,,,0.00,Wunderground v.1.15,2013-03-13 14:44:00,
2013-03-13 10:49:00,44.3,25.8,30.12,ENE,64,1.0,2.0,48,0.00,,,0.00,Wunderground v.1.15,2013-03-13 14:49:00,
2013-03-13 10:54:00,44.3,26.3,30.12,WNW,303,2.0,5.0,49,0.00,,,0.00,Wunderground v.1.15,2013-03-13 14:54:00,
2013-03-13 10:59:00,44.3,28.2,30.12,NE,35,2.0,2.0,53,0.00,,,0.00,Wunderground v.1.15,2013-03-13 14:59:00,
2013-03-13 11:04:00,44.0,26.5,30.12,NNW,344,3.0,4.0,50,0.00,,,0.00,Wunderground v.1.15,2013-03-13 15:04:00,
2013-03-13 11:09:00,43.6,26.2,30.12,East,84,3.0,3.0,50,0.00,,,0.00,Wunderground v.1.15,2013-03-13 15:09:00,
2013-03-13 11:14:00,43.5,27.0,30.12,North,355,3.0,8.0,52,0.00,,,0.00,Wunderground v.1.15,2013-03-13 15:14:00,
2013-03-13 11:19:00,43.4,26.5,30.12,East,96,4.0,4.0,51,0.00,,,0.00,Wunderground v.1.15,2013-03-13 15:19:00,
2013-03-13 11:24:00,43.7,25.8,30.12,ENE,76,3.0,4.0,49,0.00,,,0.00,Wunderground v.1.15,2013-03-13 15:24:00,
2013-03-13 11:29:00,44.1,24.6,30.11,ESE,104,3.0,5.0,46,0.00,,,0.00,Wunderground v.1.15,2013-03-13 15:29:00,
2013-03-13 11:34:00,44.5,23.9,30.11,East,79,3.0,5.0,44,0.00,,,0.00,Wunderground v.1.15,2013-03-13 15:34:00,
2013-03-13 11:39:00,44.9,22.6,30.11,ESE,122,2.0,4.0,41,0.00,,,0.00,Wunderground v.1.15,2013-03-13 15:39:00,
2013-03-13 11:44:00,45.2,23.4,30.12,ENE,69,3.0,4.0,42,0.00,,,0.00,Wunderground v.1.15,2013-03-13 15:44:00,
2013-03-13 11:49:00,45.1,23.9,30.11,ENE,57,4.0,4.0,43,0.00,,,0.00,Wunderground v.1.15,2013-03-13 15:49:00,
2013-03-13 11:54:00,45.2,23.4,30.11,South,169,3.0,4.0,42,0.00,,,0.00,Wunderground v.1.15,2013-03-13 15:54:00,
2013-03-13 12:04:00,45.9,23.5,30.11,SSE,157,2.0,11.0,41,0.00,,,0.00,Wunderground v.1.15,2013-03-13 16:04:00,
2013-03-13 12:09:00,46.3,22.7,30.11,SE,143,3.0,4.0,39,0.00,,,0.00,Wunderground v.1.15,2013-03-13 16:09:00,
2013-03-13 12:14:00,46.7,23.0,30.11,SE,131,3.0,7.0,39,0.00,,,0.00,Wunderground v.1.15,2013-03-13 16:14:00,
2013-03-13 12:19:00,47.0,21.4,30.11,East,94,3.0,3.0,36,0.00,,,0.00,Wunderground v.1.15,2013-03-13 16:19:00,
2013-03-13 12:25:00,47.2,20.9,30.11,SE,140,3.0,3.0,35,0.00,,,0.00,Wunderground v.1.15,2013-03-13 16:25:00,
2013-03-13 12:29:00,47.3,21.7,30.11,ESE,105,2.0,5.0,36,0.00,,,0.00,Wunderground v.1.15,2013-03-13 16:29:00,
2013-03-13 12:34:00,47.3,20.3,30.11,NNW,342,2.0,5.0,34,0.00,,,0.00,Wunderground v.1.15,2013-03-13 16:34:00,
2013-03-13 12:39:00,47.1,20.8,30.10,ENE,70,3.0,3.0,35,0.00,,,0.00,Wunderground v.1.15,2013-03-13 16:39:00,
2013-03-13 12:44:00,47.0,20.0,30.11,West,266,2.0,3.0,34,0.00,,,0.00,Wunderground v.1.15,2013-03-13 16:44:00,
2013-03-13 12:49:00,47.1,21.5,30.10,East,101,2.0,4.0,36,0.00,,,0.00,Wunderground v.1.15,2013-03-13 16:49:00,
2013-03-13 12:54:00,47.4,20.4,30.10,NE,42,2.0,4.0,34,0.00,,,0.00,Wunderground v.1.15,2013-03-13 16:54:00,
2013-03-13 12:59:00,47.4,21.1,30.10,ENE,70,3.0,3.0,35,0.00,,,0.00,Wunderground v.1.15,2013-03-13 16:59:00,
2013-03-13 13:04:00,47.2,20.9,30.10,SE,135,3.0,3.0,35,0.00,,,0.00,Wunderground v.1.15,2013-03-13 17:04:00,
2013-03-13 13:09:00,47.2,21.6,30.10,SW,233,3.0,3.0,36,0.00,,,0.00,Wunderground v.1.15,2013-03-13 17:09:00,
2013-03-13 13:14:00,47.3,21.0,30.10,NE,42,3.0,5.0,35,0.00,,,0.00,Wunderground v.1.15,2013-03-13 17:14:00,
2013-03-13 13:19:00,47.3,21.0,30.10,East,101,3.0,4.0,35,0.00,,,0.00,Wunderground v.1.15,2013-03-13 17:19:00,
2013-03-13 13:24:00,47.3,20.3,30.10,NE,44,3.0,4.0,34,0.00,,,0.00,Wunderground v.1.15,2013-03-13 17:24:00,
2013-03-13 13:29:00,47.0,20.0,30.10,East,80,2.0,2.0,34,0.00,,,0.00,Wunderground v.1.15,2013-03-13 17:29:00,
2013-03-13 13:34:00,46.8,19.2,30.09,ENE,59,2.0,2.0,33,0.00,,,0.00,Wunderground v.1.15,2013-03-13 17:34:00,
2013-03-13 13:39:00,47.1,19.4,30.10,ENE,70,3.0,3.0,33,0.00,,,0.00,Wunderground v.1.15,2013-03-13 17:39:00,
2013-03-13 13:44:00,47.2,20.9,30.09,NE,53,3.0,3.0,35,0.00,,,0.00,Wunderground v.1.15,2013-03-13 17:44:00,
2013-03-13 13:49:00,47.4,21.1,30.09,SE,126,3.0,4.0,35,0.00,,,0.00,Wunderground v.1.15,2013-03-13 17:49:00,
2013-03-13 13:54:00,47.4,19.7,30.09,NW,307,3.0,5.0,33,0.00,,,0.00,Wunderground v.1.15,2013-03-13 17:54:00,
2013-03-13 14:00:00,47.2,19.5,30.09,East,101,3.0,3.0,33,0.00,,,0.00,Wunderground v.1.15,2013-03-13 18:00:00,
2013-03-13 14:05:00,47.2,20.2,30.08,East,89,3.0,3.0,34,0.00,,,0.00,Wunderground v.1.15,2013-03-13 18:05:00,
2013-03-13 14:10:00,47.3,19.6,30.09,NE,55,3.0,3.0,33,0.00,,,0.00,Wunderground v.1.15,2013-03-13 18:10:00,
2013-03-13 14:14:00,47.1,20.1,30.09,North,355,3.0,5.0,34,0.00,,,0.00,Wunderground v.1.15,2013-03-13 18:14:00,
2013-03-13 14:19:00,46.9,20.0,30.08,ENE,58,3.0,5.0,34,0.00,,,0.00,Wunderground v.1.15,2013-03-13 18:19:00,
2013-03-13 14:25:00,47.0,19.3,30.08,ENE,63,3.0,5.0,33,0.00,,,0.00,Wunderground v.1.15,2013-03-13 18:25:00,
2013-03-13 14:29:00,47.5,20.5,30.08,NE,54,2.0,3.0,34,0.00,,,0.00,Wunderground v.1.15,2013-03-13 18:29:00,
2013-03-13 14:34:00,47.9,19.4,30.08,ENE,63,2.0,3.0,32,0.00,,,0.00,Wunderground v.1.15,2013-03-13 18:34:00,
2013-03-13 14:39:00,48.0,19.5,30.08,East,82,2.0,3.0,32,0.00,,,0.00,Wunderground v.1.15,2013-03-13 18:39:00,
2013-03-13 14:44:00,48.1,22.4,30.08,ENE,67,2.0,4.0,36,0.00,,,0.00,Wunderground v.1.15,2013-03-13 18:44:00,
2013-03-13 14:49:00,47.5,22.5,30.07,East,91,3.0,3.0,37,0.00,,,0.00,Wunderground v.1.15,2013-03-13 18:49:00,
2013-03-13 14:54:00,47.5,24.3,30.07,SE,126,3.0,6.0,40,0.00,,,0.00,Wunderground v.1.15,2013-03-13 18:54:00,
2013-03-13 14:59:00,47.4,24.3,30.07,North,355,3.0,4.0,40,0.00,,,0.00,Wunderground v.1.15,2013-03-13 18:59:00,
2013-03-13 15:05:00,47.1,24.0,30.08,North,355,3.0,4.0,40,0.00,,,0.00,Wunderground v.1.15,2013-03-13 19:05:00,
2013-03-13 15:09:00,47.1,24.0,30.07,ENE,67,2.0,2.0,40,0.00,,,0.00,Wunderground v.1.15,2013-03-13 19:09:00,
2013-03-13 15:14:00,46.9,23.2,30.08,NE,56,3.0,3.0,39,0.00,,,0.00,Wunderground v.1.15,2013-03-13 19:14:00,
2013-03-13 15:19:00,46.4,23.4,30.08,North,11,3.0,6.0,40,0.00,,,0.00,Wunderground v.1.15,2013-03-13 19:19:00,
2013-03-13 15:24:00,45.9,23.5,30.08,NW,306,3.0,6.0,41,0.00,,,0.00,Wunderground v.1.15,2013-03-13 19:24:00,
2013-03-13 15:29:00,46.0,24.2,30.08,North,9,2.0,3.0,42,0.00,,,0.00,Wunderground v.1.15,2013-03-13 19:29:00,
2013-03-13 15:34:00,46.1,24.8,30.08,NNE,19,2.0,3.0,43,0.00,,,0.00,Wunderground v.1.15,2013-03-13 19:34:00,
2013-03-13 15:39:00,46.2,23.2,30.08,East,82,3.0,3.0,40,0.00,,,0.00,Wunderground v.1.15,2013-03-13 19:39:00,
2013-03-13 15:44:00,46.0,23.0,30.08,NE,40,2.0,3.0,40,0.00,,,0.00,Wunderground v.1.15,2013-03-13 19:44:00,
2013-03-13 15:49:00,46.1,23.7,30.08,North,5,1.0,1.0,41,0.00,,,0.00,Wunderground v.1.15,2013-03-13 19:49:00,
2013-03-13 15:55:00,45.9,22.9,30.09,ESE,122,2.0,5.0,40,0.00,,,0.00,Wunderground v.1.15,2013-03-13 19:55:00,
2013-03-13 15:59:00,45.4,21.9,30.09,North,350,3.0,8.0,39,0.00,,,0.00,Wunderground v.1.15,2013-03-13 19:59:00,
2013-03-13 16:05:00,44.9,22.6,30.09,North,10,3.0,8.0,41,0.00,,,0.00,Wunderground v.1.15,2013-03-13 20:05:00,
2013-03-13 16:09:00,44.8,21.9,30.09,NE,46,3.0,3.0,40,0.00,,,0.00,Wunderground v.1.15,2013-03-13 20:09:00,
2013-03-13 16:14:00,44.7,21.2,30.09,NNE,22,3.0,3.0,39,0.00,,,0.00,Wunderground v.1.15,2013-03-13 20:14:00,
2013-03-13 16:19:00,44.6,20.5,30.10,ESE,106,3.0,5.0,38,0.00,,,0.00,Wunderground v.1.15,2013-03-13 20:19:00,
2013-03-13 16:24:00,44.5,21.6,30.09,ENE,63,3.0,5.0,40,0.00,,,0.00,Wunderground v.1.15,2013-03-13 20:24:00,
2013-03-13 16:29:00,44.3,20.9,30.10,North,360,2.0,2.0,39,0.00,,,0.00,Wunderground v.1.15,2013-03-13 20:29:00,
2013-03-13 16:34:00,43.9,20.5,30.10,ESE,121,3.0,5.0,39,0.00,,,0.00,Wunderground v.1.15,2013-03-13 20:34:00,
2013-03-13 16:39:00,43.7,20.3,30.10,WNW,284,4.0,6.0,39,0.00,,,0.00,Wunderground v.1.15,2013-03-13 20:39:00,
2013-03-13 16:44:00,43.6,20.2,30.10,ENE,71,3.0,6.0,39,0.00,,,0.00,Wunderground v.1.15,2013-03-13 20:44:00,
2013-03-13 16:54:00,43.6,21.4,30.11,SSW,194,2.0,3.0,41,0.00,,,0.00,Wunderground v.1.15,2013-03-13 20:54:00,
2013-03-13 16:59:00,43.7,21.5,30.11,NNW,348,2.0,4.0,41,0.00,,,0.00,Wunderground v.1.15,2013-03-13 20:59:00,
2013-03-13 17:05:00,43.6,20.8,30.11,WNW,284,2.0,4.0,40,0.00,,,0.00,Wunderground v.1.15,2013-03-13 21:05:00,
2013-03-13 17:09:00,43.3,20.6,30.11,NNW,333,3.0,3.0,40,0.00,,,0.00,Wunderground v.1.15,2013-03-13 21:09:00,
2013-03-13 17:14:00,43.1,21.0,30.11,ENE,63,3.0,3.0,41,0.00,,,0.00,Wunderground v.1.15,2013-03-13 21:14:00,
2013-03-13 17:19:00,43.0,20.9,30.11,ESE,103,2.0,5.0,41,0.00,,,0.00,Wunderground v.1.15,2013-03-13 21:19:00,
2013-03-13 17:24:00,42.7,20.0,30.11,SE,132,3.0,5.0,40,0.00,,,0.00,Wunderground v.1.15,2013-03-13 21:24:00,
2013-03-13 17:30:00,42.4,19.8,30.11,SE,132,4.0,7.0,40,0.00,,,0.00,Wunderground v.1.15,2013-03-13 21:30:00,
2013-03-13 17:34:00,42.2,19.6,30.10,East,96,3.0,7.0,40,0.00,,,0.00,Wunderground v.1.15,2013-03-13 21:34:00,
2013-03-13 17:39:00,42.0,19.4,30.11,SW,229,3.0,3.0,40,0.00,,,0.00,Wunderground v.1.15,2013-03-13 21:39:00,
2013-03-13 17:45:00,41.8,19.8,30.11,ENE,74,3.0,3.0,41,0.00,,,0.00,Wunderground v.1.15,2013-03-13 21:45:00,
2013-03-13 17:49:00,41.7,19.7,30.11,SE,140,2.0,6.0,41,0.00,,,0.00,Wunderground v.1.15,2013-03-13 21:49:00,
2013-03-13 17:54:00,41.4,18.9,30.11,East,82,3.0,6.0,40,0.00,,,0.00,Wunderground v.1.15,2013-03-13 21:54:00,
2013-03-13 17:59:00,41.0,18.5,30.11,ENE,59,4.0,4.0,40,0.00,,,0.00,Wunderground v.1.15,2013-03-13 21:59:00,
2013-03-13 18:05:00,40.7,18.8,30.11,SE,144,4.0,4.0,41,0.00,,,0.00,Wunderground v.1.15,2013-03-13 22:05:00,
2013-03-13 18:09:00,40.3,18.4,30.12,East,98,4.0,4.0,41,0.00,,,0.00,Wunderground v.1.15,2013-03-13 22:09:00,
2013-03-13 18:14:00,40.0,19.3,30.12,WNW,298,4.0,7.0,43,0.00,,,0.00,Wunderground v.1.15,2013-03-13 22:14:00,
2013-03-13 18:19:00,39.8,19.1,30.12,NE,46,3.0,3.0,43,0.00,,,0.00,Wunderground v.1.15,2013-03-13 22:19:00,
2013-03-13 18:24:00,39.6,18.9,30.12,SE,128,3.0,5.0,43,0.00,,,0.00,Wunderground v.1.15,2013-03-13 22:24:00,
2013-03-13 18:29:00,39.3,18.6,30.13,East,91,3.0,8.0,43,0.00,,,0.00,Wunderground v.1.15,2013-03-13 22:29:00,
2013-03-13 18:34:00,39.1,18.5,30.14,East,81,3.0,8.0,43,0.00,,,0.00,Wunderground v.1.15,2013-03-13 22:34:00,
2013-03-13 18:39:00,38.8,19.2,30.14,East,90,3.0,3.0,45,0.00,,,0.00,Wunderground v.1.15,2013-03-13 22:39:00,
2013-03-13 18:44:00,38.6,19.1,30.14,ENE,78,2.0,3.0,45,0.00,,,0.00,Wunderground v.1.15,2013-03-13 22:44:00,
2013-03-13 18:54:00,38.3,18.8,30.15,ENE,61,2.0,2.0,45,0.00,,,0.00,Wunderground v.1.15,2013-03-13 22:54:00,
2013-03-13 18:59:00,38.1,19.6,30.16,ENE,75,1.0,1.0,47,0.00,,,0.00,Wunderground v.1.15,2013-03-13 22:59:00,
2013-03-13 19:04:00,38.0,19.0,30.16,ENE,67,1.0,2.0,46,0.00,,,0.00,Wunderground v.1.15,2013-03-13 23:04:00,
2013-03-13 19:09:00,37.8,19.3,30.16,ENE,78,1.0,4.0,47,0.00,,,0.00,Wunderground v.1.15,2013-03-13 23:09:00,
2013-03-13 19:14:00,37.6,18.7,30.16,SSE,157,2.0,5.0,46,0.00,,,0.00,Wunderground v.1.15,2013-03-13 23:14:00,
2013-03-13 19:19:00,37.4,19.5,30.16,ENE,76,2.0,2.0,48,0.00,,,0.00,Wunderground v.1.15,2013-03-13 23:19:00,
2013-03-13 19:24:00,37.2,19.3,30.16,South,183,2.0,4.0,48,0.00,,,0.00,Wunderground v.1.15,2013-03-13 23:24:00,
2013-03-13 19:29:00,37.0,19.1,30.16,NE,49,3.0,4.0,48,0.00,,,0.00,Wunderground v.1.15,2013-03-13 23:29:00,
2013-03-13 19:34:00,36.8,19.4,30.16,ENE,60,4.0,4.0,49,0.00,,,0.00,Wunderground v.1.15,2013-03-13 23:34:00,
2013-03-13 19:39:00,36.7,19.3,30.16,ENE,74,3.0,3.0,49,0.00,,,0.00,Wunderground v.1.15,2013-03-13 23:39:00,
2013-03-13 19:44:00,36.5,19.1,30.16,ENE,60,2.0,3.0,49,0.00,,,0.00,Wunderground v.1.15,2013-03-13 23:44:00,
2013-03-13 19:49:00,36.3,19.4,30.17,ENE,59,3.0,4.0,50,0.00,,,0.00,Wunderground v.1.15,2013-03-13 23:49:00,
2013-03-13 19:54:00,36.1,19.2,30.18,East,83,3.0,4.0,50,0.00,,,0.00,Wunderground v.1.15,2013-03-13 23:54:00,
2013-03-13 19:59:00,35.9,19.5,30.18,SSE,152,3.0,4.0,51,0.00,,,0.00,Wunderground v.1.15,2013-03-13 23:59:00,
2013-03-13 20:05:00,35.7,19.3,30.18,ESE,105,3.0,4.0,51,0.00,,,0.00,Wunderground v.1.15,2013-03-14 00:05:00,
2013-03-13 20:09:00,35.6,19.2,30.18,ENE,74,2.0,2.0,51,0.00,,,0.00,Wunderground v.1.15,2013-03-14 00:09:00,
2013-03-13 20:15:00,35.4,19.5,30.19,ESE,104,2.0,5.0,52,0.00,,,0.00,Wunderground v.1.15,2013-03-14 00:15:00,
2013-03-13 20:19:00,35.3,19.4,30.18,East,94,1.0,4.0,52,0.00,,,0.00,Wunderground v.1.15,2013-03-14 00:19:00,
2013-03-13 20:25:00,35.1,19.7,30.19,NNE,14,1.0,4.0,53,0.00,,,0.00,Wunderground v.1.15,2013-03-14 00:25:00,
2013-03-13 20:30:00,34.9,19.9,30.19,ENE,78,1.0,1.0,54,0.00,,,0.00,Wunderground v.1.15,2013-03-14 00:30:00,
2013-03-13 20:34:00,34.8,19.8,30.20,East,94,1.0,1.0,54,0.00,,,0.00,Wunderground v.1.15,2013-03-14 00:34:00,
2013-03-13 20:39:00,34.7,19.7,30.20,East,94,0.0,1.0,54,0.00,,,0.00,Wunderground v.1.15,2013-03-14 00:39:00,
2013-03-13 20:44:00,34.6,20.5,30.20,East,94,0.0,2.0,56,0.00,,,0.00,Wunderground v.1.15,2013-03-14 00:44:00,
2013-03-13 20:49:00,34.4,21.5,30.20,East,94,0.0,0.0,59,0.00,,,0.00,Wunderground v.1.15,2013-03-14 00:49:00,
2013-03-13 20:54:00,34.1,20.4,30.20,SE,128,0.0,0.0,57,0.00,,,0.00,Wunderground v.1.15,2013-03-14 00:54:00,
2013-03-13 20:59:00,33.8,19.7,30.20,ENE,78,1.0,1.0,56,0.00,,,0.00,Wunderground v.1.15,2013-03-14 00:59:00,
2013-03-13 21:04:00,33.6,20.4,30.20,ESE,118,1.0,1.0,58,0.00,,,0.00,Wunderground v.1.15,2013-03-14 01:04:00,
2013-03-13 21:09:00,33.6,19.6,30.20,NNW,345,2.0,2.0,56,0.00,,,0.00,Wunderground v.1.15,2013-03-14 01:09:00,
2013-03-13 21:14:00,33.6,19.6,30.20,East,86,2.0,2.0,56,0.00,,,0.00,Wunderground v.1.15,2013-03-14 01:14:00,
2013-03-13 21:19:00,33.6,19.6,30.20,ENE,71,2.0,2.0,56,0.00,,,0.00,Wunderground v.1.15,2013-03-14 01:19:00,
2013-03-13 21:24:00,33.6,19.6,30.20,ENE,78,2.0,3.0,56,0.00,,,0.00,Wunderground v.1.15,2013-03-14 01:24:00,
2013-03-13 21:29:00,33.6,20.0,30.19,East,84,3.0,3.0,57,0.00,,,0.00,Wunderground v.1.15,2013-03-14 01:29:00,
2013-03-13 21:34:00,33.5,19.5,30.20,SSW,204,3.0,3.0,56,0.00,,,0.00,Wunderground v.1.15,2013-03-14 01:34:00,
2013-03-13 21:40:00,33.4,19.4,30.19,East,84,2.0,4.0,56,0.00,,,0.00,Wunderground v.1.15,2013-03-14 01:40:00,
2013-03-13 21:44:00,33.4,19.8,30.20,East,86,2.0,4.0,57,0.00,,,0.00,Wunderground v.1.15,2013-03-14 01:44:00,
2013-03-13 21:50:00,33.3,19.3,30.19,ENE,57,2.0,6.0,56,0.00,,,0.00,Wunderground v.1.15,2013-03-14 01:50:00,
2013-03-13 21:54:00,33.1,19.1,30.19,NE,51,3.0,6.0,56,0.00,,,0.00,Wunderground v.1.15,2013-03-14 01:54:00,
2013-03-13 21:59:00,33.0,19.0,30.19,NE,55,3.0,5.0,56,0.00,,,0.00,Wunderground v.1.15,2013-03-14 01:59:00,
2013-03-13 22:05:00,32.9,19.3,30.19,ESE,102,3.0,5.0,57,0.00,,,0.00,Wunderground v.1.15,2013-03-14 02:05:00,
2013-03-13 22:09:00,32.8,19.2,30.19,East,86,4.0,4.0,57,0.00,,,0.00,Wunderground v.1.15,2013-03-14 02:09:00,
2013-03-13 22:14:00,32.7,19.1,30.19,East,91,4.0,4.0,57,0.00,,,0.00,Wunderground v.1.15,2013-03-14 02:14:00,
2013-03-13 22:24:00,32.4,19.7,30.20,NE,53,2.0,4.0,59,0.00,,,0.00,Wunderground v.1.15,2013-03-14 02:24:00,
2013-03-13 22:29:00,32.2,19.9,30.19,East,91,2.0,2.0,60,0.00,,,0.00,Wunderground v.1.15,2013-03-14 02:29:00,
2013-03-13 22:34:00,32.0,19.7,30.20,ENE,74,2.0,2.0,60,0.00,,,0.00,Wunderground v.1.15,2013-03-14 02:34:00,
2013-03-13 22:39:00,31.8,19.5,30.20,ESE,111,2.0,5.0,60,0.00,,,0.00,Wunderground v.1.15,2013-03-14 02:39:00,
2013-03-13 22:44:00,31.6,19.7,30.20,NE,49,2.0,5.0,61,0.00,,,0.00,Wunderground v.1.15,2013-03-14 02:44:00,
2013-03-13 22:54:00,31.3,20.5,30.21,WSW,246,2.0,4.0,64,0.00,,,0.00,Wunderground v.1.15,2013-03-14 02:54:00,
2013-03-13 22:59:00,31.1,20.0,30.21,WSW,245,3.0,3.0,63,0.00,,,0.00,Wunderground v.1.15,2013-03-14 02:59:00,
2013-03-13 23:05:00,30.9,20.1,30.21,NNE,22,3.0,3.0,64,0.00,,,0.00,Wunderground v.1.15,2013-03-14 03:05:00,
2013-03-13 23:09:00,30.7,20.0,30.21,NW,309,2.0,2.0,64,0.00,,,0.00,Wunderground v.1.15,2013-03-14 03:09:00,
2013-03-13 23:14:00,30.6,19.9,30.21,East,98,2.0,2.0,64,0.00,,,0.00,Wunderground v.1.15,2013-03-14 03:14:00,
2013-03-13 23:24:00,30.4,20.0,30.21,NE,34,2.0,5.0,65,0.00,,,0.00,Wunderground v.1.15,2013-03-14 03:24:00,
2013-03-13 23:29:00,30.3,19.6,30.22,ESE,111,3.0,3.0,64,0.00,,,0.00,Wunderground v.1.15,2013-03-14 03:29:00,
2013-03-13 23:34:00,30.2,19.5,30.22,NW,321,3.0,4.0,64,0.00,,,0.00,Wunderground v.1.15,2013-03-14 03:34:00,
2013-03-13 23:39:00,30.1,19.4,30.22,East,87,3.0,4.0,64,0.00,,,0.00,Wunderground v.1.15,2013-03-14 03:39:00,
2013-03-13 23:44:00,29.9,19.2,30.22,NE,55,4.0,4.0,64,0.00,,,0.00,Wunderground v.1.15,2013-03-14 03:44:00,
2013-03-13 23:49:00,29.8,19.1,30.23,ESE,112,3.0,3.0,64,0.00,,,0.00,Wunderground v.1.15,2013-03-14 03:49:00,
2013-03-13 23:54:00,29.7,19.4,30.23,ESE,111,3.0,4.0,65,0.00,,,0.00,Wunderground v.1.15,2013-03-14 03:54:00,
2013-03-13 23:59:00,29.6,18.9,30.23,ESE,119,3.0,3.0,64,0.00,,,0.00,Wunderground v.1.15,2013-03-14 03:59:00,